User: anonymous   Login
Location: Unspecified
(0.0000°N, 0.0000°E)
Time: 00:58:44
(UTC+00:00)
Language:

OBJECT V - Orbit

View from above orbital plane
View from above orbital plane
View from above satellite
View from above satellite

Ground track
Ground track

The orbit data is extracted from the following two-line orbital elements,

1 42844U 17042V   18173.26555822  .00000387  00000-0  43699-4 0  9994
2 42844  97.5953  75.8203 0012617 166.7014 193.4541 14.91829159 51113
Epoch (UTC): 22 June 2018 06:22:24
Eccentricity: 0.0012617
inclination: 97.5953°
perigee height: 583 km
apogee height: 601 km
right ascension of ascending node: 75.8203°
argument of perigee: 166.7014°
revolutions per day: 14.91829159
mean anomaly at epoch: 193.4541°
orbit number at epoch: 5111

The dashed part of the orbit path shows where the satellite is in the earth's shadow,  

DLR